Weather History for Milwaukee Timmerman, WI

Change the Weather History Date:

Wednesday, December 4, 2013

  Actual Average Record
Temperature  
Mean Temperature 44 °F -  
Max Temperature 51 °F 35 °F 60 °F (1961)
Min Temperature 37 °F 22 °F 4 °F (1976)
Degree Days  
Heating Degree Days 21    
Moisture  
Dew Point 39 °F    
Average Humidity 91    
Maximum Humidity 100    
Minimum Humidity 76    
Precipitation  
Precipitation 0.00 in - - ()
Sea Level Pressure  
Sea Level Pressure 29.64 in    
Wind  
Wind Speed 7 mph (SE)    
Max Wind Speed 26 mph    
Max Gust Speed 34 mph    
Visibility 3 miles    
Events Fog , Rain    
Averages and records for this station are not official NWS values.
T = Trace of Precipitation, MM = Missing Value Source: NWS Daily Summary

Daily Weather History Graph

Daily Weather History Graph

Search for Another Location

Airport:

Trip Planner

Search our weather history database for the weather conditions in past years. The results will help you decide how hot, cold, wet, or windy it might be!

Date:

Astronomy

Dec. 04, 2013 Rise Set
Actual Time 7:07 AM CST 4:17 PM CST
Civil Twilight 6:35 AM CST 4:49 PM CST
Nautical Twilight 5:59 AM CST 5:24 PM CST
Astronomical Twilight 5:25 AM CST 5:59 PM CST
Moon 8:34 AM CST (12/4) 6:28 PM CST (12/4)
Length of Visible Light 10h 14m
Length of Day
9h 09m
Waxing Crescent, 4% of the Moon is Illuminated
Dec 4
Waxing Crescent
Dec 9
First Quarter
Dec 17
Full
Dec 25
Last Quarter
Jan 1
New

Hourly Weather History & Observations

Time (CST) Temp. Windchill Dew Point Humidity Pressure Visibility Wind Dir Wind Speed Gust Speed Precip Events Conditions
12:15 AM 37.4 °F 32.8 °F 35.6 °F 93% 29.75 in 0.8 mi NNE 5.8 mph - N/A   Overcast
12:35 AM 37.4 °F 32.8 °F 35.6 °F 93% 29.76 in 1.0 mi NNE 5.8 mph - N/A   Overcast
12:55 AM 37.4 °F 32.8 °F 35.6 °F 93% 29.76 in 1.0 mi North 5.8 mph - N/A   Light Drizzle
1:15 AM 37.4 °F 32.8 °F 35.6 °F 93% 29.76 in 1.2 mi NNE 5.8 mph - N/A   Overcast
1:35 AM 37.4 °F 30.8 °F 35.6 °F 93% 29.76 in 1.0 mi NNE 9.2 mph - N/A   Overcast
1:55 AM 37.4 °F 32.8 °F 35.6 °F 93% 29.76 in 1.0 mi NNE 5.8 mph - N/A   Overcast
2:15 AM 37.4 °F 33.8 °F 35.6 °F 93% 29.77 in 0.8 mi NNE 4.6 mph - N/A   Overcast
2:35 AM 37.4 °F 32.8 °F 35.6 °F 93% 29.76 in 0.8 mi NE 5.8 mph - N/A Rain Light Rain
2:55 AM 37.4 °F 33.8 °F 35.6 °F 93% 29.76 in 1.0 mi NE 4.6 mph - N/A Rain Light Rain
3:15 AM 37.4 °F 31.4 °F 35.6 °F 93% 29.75 in 0.8 mi NE 8.1 mph - N/A   Overcast
3:35 AM 37.4 °F 30.8 °F 35.6 °F 93% 29.74 in 1.0 mi NE 9.2 mph - N/A   Overcast
3:55 AM 37.4 °F 34.9 °F 35.6 °F 93% 29.75 in 1.0 mi NNE 3.5 mph - N/A   Overcast
4:15 AM 37.4 °F 33.8 °F 35.6 °F 93% 29.75 in 1.0 mi NE 4.6 mph - N/A   Overcast
4:35 AM 37.4 °F 34.9 °F 35.6 °F 93% 29.74 in 1.0 mi NE 3.5 mph - N/A   Overcast
4:55 AM 37.4 °F 33.8 °F 35.6 °F 93% 29.73 in 1.0 mi NE 4.6 mph - N/A   Overcast
5:15 AM 37.4 °F - 35.6 °F 93% 29.73 in 0.8 mi Calm Calm - N/A   Overcast
5:35 AM 37.4 °F - 35.6 °F 93% 29.72 in 0.5 mi Calm Calm - N/A Fog Fog
5:55 AM 37.4 °F - 35.6 °F 93% 29.71 in 0.5 mi Calm Calm - N/A Fog Fog
6:15 AM 37.4 °F - 35.6 °F 93% 29.71 in 0.5 mi Calm Calm - N/A Fog Fog
6:35 AM 37.4 °F - 35.6 °F 93% 29.71 in 0.2 mi Calm Calm - N/A Fog Fog
6:45 AM 39.2 °F - 35.6 °F 87% 29.71 in 0.2 mi Calm Calm - N/A Fog Fog
7:45 AM 39.2 °F - 37.4 °F 93% 29.71 in 0.2 mi Calm Calm - N/A Fog Fog
8:45 AM 42.8 °F - 42.8 °F 100% 29.71 in 0.2 mi Calm Calm - N/A   Overcast
9:45 AM 42.8 °F - 42.8 °F 100% 29.70 in 0.2 mi Calm Calm - N/A Fog Fog
10:48 AM 44.6 °F 41.4 °F 44.6 °F 100% 29.68 in 0.5 mi SSE 5.8 mph - N/A Fog Fog
11:45 AM 46.4 °F 42.9 °F 44.6 °F 93% 29.64 in 1.0 mi SE 6.9 mph - N/A   Overcast
12:45 PM 44.6 °F 41.4 °F 42.8 °F 93% 29.60 in 0.5 mi ESE 5.8 mph - N/A Fog Light Drizzle
1:45 PM 44.6 °F 40.7 °F 42.8 °F 93% 29.56 in 1.0 mi ESE 6.9 mph - N/A Rain Light Rain
2:45 PM 44.6 °F 40.2 °F 44.6 °F 100% 29.55 in 1.0 mi SE 8.1 mph - N/A Rain Light Rain
3:45 PM 44.6 °F 38.8 °F 44.6 °F 100% 29.52 in 0.8 mi SE 11.5 mph - N/A Rain Light Rain
4:45 PM 46.4 °F 41.9 °F 44.6 °F 93% 29.50 in 1.0 mi SE 9.2 mph - N/A   Overcast
5:45 PM 48.2 °F - 46.4 °F 93% 29.48 in 1.0 mi SSE 9.2 mph - N/A   Overcast
6:45 PM 50.0 °F - 48.2 °F 94% 29.48 in 1.5 mi South 9.2 mph 17.3 mph N/A   Overcast
7:45 PM 51.8 °F - 48.2 °F 88% 29.46 in 7.0 mi SW 12.7 mph 23.0 mph N/A   Overcast
8:15 PM 50.0 °F - 46.4 °F 87% 29.46 in 7.0 mi SW 12.7 mph 19.6 mph N/A   Overcast
8:35 PM 50.0 °F - 46.4 °F 87% 29.46 in 7.0 mi SSW 13.8 mph 23.0 mph N/A   Overcast
8:45 PM 51.8 °F - 46.4 °F 82% 29.46 in 7.0 mi SSW 16.1 mph 23.0 mph N/A   Overcast
8:55 PM 51.8 °F - 46.4 °F 82% 29.48 in 7.0 mi SW 17.3 mph 26.5 mph N/A   Overcast
9:15 PM 50.0 °F - 46.4 °F 87% 29.49 in 7.0 mi SW 19.6 mph 26.5 mph N/A   Overcast
9:35 PM 50.0 °F - 42.8 °F 76% 29.51 in 10.0 mi SW 26.5 mph 34.5 mph N/A   Overcast
9:55 PM 44.6 °F 36.9 °F 39.2 °F 81% 29.53 in 10.0 mi WSW 18.4 mph 31.1 mph N/A   Overcast
10:15 PM 42.8 °F 34.3 °F 37.4 °F 81% 29.53 in 10.0 mi WSW 19.6 mph 26.5 mph N/A   Overcast
10:35 PM 42.8 °F 33.5 °F 35.6 °F 76% 29.53 in 10.0 mi WSW 23.0 mph 29.9 mph N/A   Overcast
10:50 PM 41.0 °F 31.6 °F 35.6 °F 81% 29.55 in 10.0 mi WSW 20.7 mph 29.9 mph N/A   Overcast
11:15 PM 39.2 °F 29.8 °F 33.8 °F 81% 29.57 in 10.0 mi WSW 18.4 mph 33.4 mph N/A   Overcast
11:35 PM 37.4 °F 26.4 °F 33.8 °F 87% 29.58 in 10.0 mi WSW 23.0 mph 28.8 mph N/A   Overcast
11:55 PM 37.4 °F 26.9 °F 32.0 °F 81% 29.58 in 10.0 mi WSW 20.7 mph 26.5 mph N/A   Overcast